{"data":{"norad_id":69035,"intl_designator":"2026-101L","name":"STARLINK-37512","alt_names":[],"object_type":"PAYLOAD","status":"ACTIVE","operator":null,"country":"US","launch_date":"2026-05-06","launch_site_code":"AFWTR","launch_vehicle":null,"mission":null,"orbit_class":"UNKNOWN","rcs_meters":null,"size_class":null,"mass_kg":null,"dimensions":null,"purposes":["comms"],"wikipedia_slug":null,"has_3d_model":false,"image_url":null,"decayed_at":null,"tle_current":{"epoch":"2026-09-19T01:39:13.492224Z","epoch_age_seconds":142961,"freshness":"FRESH","line1":"1 69035U 26101L   26262.06890616  .00011759  00000+0  36604-3 0  9991","line2":"2 69035  97.2851 115.6355 0002139 100.4659 259.6825 15.33438486 20962","mean_motion":15.33438486,"eccentricity":0.0002139,"inclination_deg":97.2851,"raan_deg":115.6355,"arg_perigee_deg":100.4659,"mean_anomaly_deg":259.6825,"bstar":0.00036604,"rev_number":2096,"period_min":93.906603567533,"perigee_km":464.0986882928,"apogee_km":467.0264229627,"semimajor_km":6843.6995556278,"source":"CELESTRAK","updated_at":"2026-09-20T09:00:44.059948Z"}}}